Home > Weather > Brownsville > Past weeks

Flag for USA Past Weather in Brownsville, Texas, USA — Yesterday and Last 2 Weeks

Now
84 °F

Passing clouds.


Feels Like: 93 °F
Forecast: 77 / 93 °F
Wind: 14 mph from Southeast

Location: Brownsville / South Padre Island International Airport

Current Time: Jun 29, 2016 at 8:48:47 PM

Latest Report: Jun 29, 2016 at 7:53 PM


Visibility: 10 mi

Pressure: 29.91 "Hg

Humidity: 77%

Dew Point: 76 °F

Location of BrownsvilleLocation

Past Weather in Brownsville — Graph

°F

Brownsville Temperature Yesterday

Maximum temperature yesterday: 91 °F (at 2:53 PM)
Minimum temperature yesterday: 77 °F (at 6:53 AM)
Average temperature yesterday: 84 °F

High & Low Weather Summary for the Past Weeks

 TemperatureHumidityPressure
High94 °F (Jun 15, 1:53 PM)100% (Jun 29, 5:53 AM)30.14 "Hg (Jun 29, 5:53 AM)
Low74 °F (Jun 23, 6:53 AM)46% (Jun 21, 1:53 PM)29.82 "Hg (Jun 14, 6:53 PM)
Average84 °F76%29.99 "Hg
* Reported Jun 14 6:53 PM — Jun 29 6:53 PM, Brownsville, Weather by CustomWeather, © 2016

Note: Actual official high and low records may vary slightly from our data, if they occured in-between our weather recording intervals... More about our weather records

Advertising

Brownsville Weather History for the Previous 24 Hours

Scroll right to see more
 ConditionsComfort  
Time TempWeatherWind HumidityBarometerVisibility
6:53 PM
Wed, Jun 29
87 °FPassing clouds.10 mph69%29.91 "Hg10 mi
5:53 PM89 °FPassing clouds.13 mph65%29.90 "Hg10 mi
4:53 PM89 °FBroken clouds.16 mph68%29.90 "Hg10 mi
3:53 PM91 °FBroken clouds.13 mph64%29.91 "Hg10 mi
2:53 PM91 °FPassing clouds.12 mph64%29.93 "Hg10 mi
1:53 PM89 °FScattered clouds.12 mph68%29.95 "Hg10 mi
12:53 PM90 °FScattered clouds.5 mph56%29.97 "Hg10 mi
11:53 AM91 °FPassing clouds.5 mph52%29.98 "Hg10 mi
10:53 AM89 °FPartly sunny.3 mph63%29.99 "Hg10 mi
9:53 AM85 °FSunny.5 mph77%29.99 "Hg10 mi
8:53 AM82 °FMostly cloudy.7 mph85%29.99 "Hg10 mi
7:53 AM80 °FScattered clouds.No wind90%29.96 "Hg10 mi
6:53 AM76 °FClear.No wind97%29.93 "Hg10 mi
5:53 AM76 °FClear.No wind100%29.94 "Hg10 mi
4:53 AM77 °FClear.3 mph94%29.93 "Hg10 mi
3:53 AM77 °FClear.No wind94%29.94 "Hg10 mi
2:53 AM77 °FClear.3 mph94%29.96 "Hg10 mi
1:53 AM77 °FClear.5 mph94%29.98 "Hg10 mi
12:53 AM78 °FClear.3 mph90%29.99 "Hg10 mi
11:53 PM
Tue, Jun 28
79 °FClear.6 mph88%29.99 "Hg10 mi
10:53 PM80 °FClear.5 mph87%29.99 "Hg10 mi
9:53 PM81 °FClear.3 mph85%29.98 "Hg10 mi
8:53 PM83 °FSunny.5 mph79%29.96 "Hg10 mi
Weather by CustomWeather, © 2016

See weather overviewHow to use our weather pages